Flag for U.S.A. Weather past 2 weeks in Syracuse, New York, U.S.A.

Now
54 °F

Passing clouds.


Feels Like: 53 °F
Forecast: 55 / 81 °F
Wind: 6 mph from East

Location: Syracuse Hancock International Airport

Current Time: Aug 29, 2015 at 5:58:02 AM

Latest Report: Aug 29, 2015 at 4:54 AM


Visibility: 10 mi

Pressure: 30.16 "Hg

Humidity: 100%

Dew point: 54 °F

Location of SyracuseLocation

Historic Weather in Syracuse — Graph

°F

Syracuse temperature yesterday

Maximum temperature yesterday: 74 °F (at 3:54 PM)
Minimum temperature yesterday: 54 °F (at 1:54 AM)
Average temperature yesterday: 63 °F

Past Weeks' High & Low Weather Summary

 TemperatureHumidityPressure
High88 °F (Aug 17, 2:54 PM)100% (Aug 15, 5:54 AM)30.21 "Hg (Aug 15, 5:54 AM)
Low54 °F (Aug 28, 1:54 AM)42% (Aug 25, 12:54 PM)29.80 "Hg (Aug 20, 3:54 PM)
Average70 °F77%30.01 "Hg
* Reported Aug 14 3:54 AM — Aug 29 3:54 AM, Syracuse, Weather by CustomWeather, © 2015

Note: Actual official high and low records may vary slightly from our data, if they occured in-between our weather recording intervals... More about our weather records

Advertising

Syracuse weather history for previous 24 hours

 ConditionsComfort  
Time TempWeatherWind HumidityBarometerVisibility
3:54 AM
Sat, Aug 29
56 °FPassing clouds.No wind93%30.15 "Hg10 mi
2:54 AM56 °FPassing clouds.5 mph93%30.16 "Hg10 mi
1:54 AM56 °FPassing clouds.3 mph97%30.17 "Hg10 mi
12:54 AM57 °FPassing clouds.3 mph93%30.17 "Hg10 mi
11:54 PM
Fri, Aug 28
57 °FPassing clouds.5 mph96%30.16 "Hg10 mi
10:54 PM59 °FPassing clouds.5 mph93%30.17 "Hg10 mi
9:54 PM61 °FPassing clouds.3 mph87%30.18 "Hg10 mi
8:54 PM61 °FPassing clouds.3 mph87%30.18 "Hg10 mi
7:54 PM65 °FScattered clouds.3 mph78%30.16 "Hg10 mi
6:54 PM70 °FScattered clouds.6 mph66%30.15 "Hg10 mi
5:54 PM73 °FScattered clouds.5 mph55%30.14 "Hg10 mi
4:54 PM72 °FPartly sunny.7 mph57%30.15 "Hg10 mi
3:54 PM74 °FCloudy.8 mph50%30.16 "Hg10 mi
2:54 PM73 °FPartly sunny.10 mph51%30.17 "Hg10 mi
1:54 PM71 °FBroken clouds.No wind53%30.17 "Hg10 mi
12:54 PM70 °FBroken clouds.6 mph55%30.19 "Hg10 mi
11:54 AM72 °FBroken clouds.5 mph61%30.20 "Hg10 mi
10:54 AM68 °FScattered clouds.6 mph73%30.21 "Hg10 mi
9:54 AM65 °FBroken clouds.9 mph78%30.21 "Hg10 mi
8:54 AM62 °FMore clouds than sun.7 mph83%30.20 "Hg10 mi
7:54 AM59 °FCloudy.No wind90%30.19 "Hg10 mi
6:54 AM57 °FPassing clouds.3 mph93%30.16 "Hg10 mi
5:54 AM56 °FPassing clouds.3 mph93%30.15 "Hg10 mi
Weather by CustomWeather, © 2015

See weather overviewHow to use our weather pages